Regional Weather Roundup
Issued by NWS Cleveland, OH

Home | Current Version | Previous Version | Graphics & Text | Print | Product List | Glossary On
Versions: 1 2 3 4 5 6 7 8 9 10 11 12 13 14 15 16 17 18 19 20 21 22 23 24 25 26 27 28 29 30 31 32 33 34 35 36 37 38 39 40 41 42 43 44 45 46 47 48 49 50
000
ASUS41 KCLE 280400
RWRCLE
OHIO REGIONAL WEATHER ROUNDUP
NATIONAL WEATHER SERVICE WILMINGTON, OH
1200 AM EDT FRI APR 28 2017

NOTE: "FAIR" INDICATES FEW OR NO CLOUDS BELOW 12,000 FEET WITH NO
SIGNIFICANT WEATHER AND/OR OBSTRUCTIONS TO VISIBILITY.

OHZ001>008-015>018-024>027-034-035-043-044-280500-
   NORTHWEST OHIO

CITY           SKY/WX    TMP DP  RH WIND       PRES   REMARKS
DEFIANCE       CLOUDY    50  42  74 SW9       29.86R
FINDLAY        FAIR      49  42  77 W8        29.85R
TOLEDO EXPRESS CLOUDY    51  43  74 W12       29.84R
TOLEDO EXEC    FAIR      52  43  71 W15G24    29.85R
LIMA           FAIR      49  45  86 W10       29.86S
$$

OHZ009>014-019>023-028>033-038-089-280500-
   NORTHEAST OHIO

CITY           SKY/WX    TMP DP  RH WIND       PRES   REMARKS
CLE-HOPKINS    FAIR      53  40  61 W10       29.88R
CLE-LAKEFRONT  FAIR      53  44  71 SW13      29.85R
CUY CO. ARPT   NOT AVBL
LORAIN-ELYRIA  FAIR      50  39  66 W7        29.87R
ASHTABULA      FAIR      52  44  74 W13       29.86R
AKRON-CANTON   FAIR      55  44  66 W9        29.86R
WOOSTER        NOT AVBL
MANSFIELD      FAIR      50  43  77 SW5       29.86R
YOUNGSTOWN     FAIR      54  47  77 NW8       29.85R
$$

OHZ042-051>053-060>062-070>072-077>081-280500-
  SOUTHWEST OHIO

CITY           SKY/WX    TMP DP  RH WIND       PRES   REMARKS
CINC-COVINGTON FAIR      52  47  83 W3        29.88S
CINC-LUNKEN    FAIR      50  49  96 CALM      29.89S
HAMILTON       FAIR      47  45  93 CALM      29.90R
DAYTON         NOT AVBL
WRIGHT-PAT AFB FAIR      51  45  79 W3        29.88R
DAYTON GENERAL FAIR      54  46  74 W5        29.88R
WILMINGTON     FAIR      50  46  86 W7        29.88R
$$

OHZ036-037-039>041-045>050-054>059-063>069-073>076-082>088-280500-
  CENTRAL AND SOUTHEAST OHIO

CITY           SKY/WX    TMP DP  RH WIND       PRES   REMARKS
COLUMBUS       FAIR      53  46  77 W6        29.86S
OSU AIRPORT    FAIR      53  45  74 SW5       29.87R
BOLTON FIELD   NOT AVBL
RICKENBACK AFB NOT AVBL
NEWARK         FAIR      54  44  69 W3        29.86R
MARION         FAIR      52  43  71 W8        29.87R
LANCASTER      FAIR      56  45  66 W5        29.87S
ZANESVILLE     FAIR      57  45  64 W7        29.86R
NEW PHILLY     FAIR      58  47  66 VRB5      29.86R
$$



USA.gov is the U.S. government's official web portal to all federal, state and local government web resources and services.